World > North America > United States > New York

Hourly Steuben Valley, NY Regional Weather

Feedback E-mail the Weather

Latest News

Steuben Valley, NY Weather Maps

°F °C°F °C
Steuben Valley Weather Map
UTC Time: 5/28/2022, 13:24
Your Time:

Steuben Valley, NY Regional Weather

Expires:202205281400;;700948
ASUS41 KBGM 281310
RWRBGM

REGIONAL WEATHER ROUNDUP
NATIONAL WEATHER SERVICE BINGHAMTON NY
900 AM EDT SAT MAY 28 2022

Note: "fair" indicates few or no clouds below 12,000 feet with no
significant weather and/or obstructions to visibility.

* = Station(s) that does not report precipitation, such as rain, 
snow, etc, also no thunder or fog.


NYZ009-015>018-022>025-036-037-044>046-055>057-062-281400
...Central New York...
  
CITY           SKY/WX    TMP DP  RH WIND       PRES   REMARKS
Binghamton     CLOUDY    61  56  83 NW10      29.77R                  
Cortland       RAIN      61  55  82 W3        29.77R                  
Dansville      CLOUDY    63  60  90 CALM      29.78R                  
Elmira         LGT RAIN  63  59  87 W6        29.76R                  
Endicott       CLOUDY    64  63  94 CALM      29.76R                  
Ithaca         CLOUDY    62  60  93 W12       29.78R                  
Hamilton       CLOUDY    61  59  94 W3        29.76                   
Monticello     CLOUDY    64  63  94 NW6       29.75S                  
Norwich        CLOUDY    64  59  82 N5        29.77S                  
Oneonta        PTSUNNY   63  59  88 W5        29.76S                  
Penn Yan       CLOUDY    62  58  86 S5        29.77R                  
Rome           CLOUDY    61  60  97 VRB3      29.74S                  
Seneca Falls   RAIN      61  57  88 NW9       29.77R                  
Sidney         CLOUDY    64  61  88 NW6       29.76R                  
Skaneateles    LGT RAIN  61  61 100 W9        29.77R                  
Syracuse       CLOUDY    61  59  93 W12       29.75R                  
$$
 

SKY/WX - Weather  TMP - Temperature  DP - Dew Point  RH - Humidity
WIND - Wind Direction/Speed PRES - Barometric Pressure VSB - Visibility
WCI - Wind Chill Index E13G22 Wind - East Wind 13 mph/Gusts of 22 mph

Trending Headlines

Steuben Valley Radar Loop



Steuben Valley Quick Facts


National Two Day Weather Forecast


E-mail the Steuben Valley Weather Forecast

Voice your opinion or tell us about page issues...